Regional Weather Roundup
Issued by NWS

Home | Current Version | Previous Version | Graphics & Text | Print | Product List | Glossary On
Versions: 1 2 3 4 5 6 7 8 9 10 11 12 13 14 15 16 17 18 19 20 21 22 23 24 25 26 27 28 29 30 31 32 33 34 35 36 37 38 39 40 41 42 43 44 45 46 47 48 49 50
000
ASUS45 KBOI 300510
RWRID
WEATHER ROUNDUP FOR IDAHO
NATIONAL WEATHER SERVICE BOISE ID
1100 PM MDT SUN MAR 29 2015

NOTE: "FAIR" INDICATES FEW OR NO CLOUDS BELOW 12000 FEET
WITH NO SIGNIFICANT WEATHER AND/OR OBSTRUCTIONS TO VISIBILITY

IDZ012-014-300600-
SOUTHWEST IDAHO


CITY           SKY/WX    TMP DP  RH WIND       PRES   REMARKS
BOISE          PTCLDY    52  29  41 SE5       30.17R
CALDWELL       PTCLDY    48  28  46 CALM      30.17S
MOUNTAIN HOME  CLEAR     47  28  49 NE2       30.17S
$$

IDZ016-017-300600-
SOUTHCENTRAL IDAHO


CITY           SKY/WX    TMP DP  RH WIND       PRES   REMARKS
BURLEY         CLEAR     42  23  46 S7        30.18F
JEROME         CLEAR     48  19  31 SE5       30.20R
TWIN FALLS     CLEAR     46  20  35 S12       30.19F
$$

IDZ019>023-300600-
SOUTHEAST IDAHO


CITY           SKY/WX    TMP DP  RH WIND       PRES   REMARKS
IDAHO FALLS    CLEAR     46  19  34 S8        30.20S
POCATELLO      CLEAR     49  16  26 S8        30.20S
REXBURG        CLEAR     47  16  29 S7        30.19S
$$

IDZ006-010-011-018-031-032-300600-
CENTRAL IDAHO MOUNTAINS


CITY           SKY/WX    TMP DP  RH WIND       PRES   REMARKS
MCCALL         MOCLDY    39  33  79 NW7       30.21R WCI  34
HAILEY         PTCLDY    45  27  49 NW7       30.23R
STANLEY          N/A     34  24  67 SE6       30.27R WCI  29
SALMON         PTCLDY    45  27  49 CALM      30.17S
CHALLIS        PTCLDY    47  24  40 CALM      30.20R
$$

IDZ002-004-006-007-026-300600-
NORTHERN IDAHO


CITY           SKY/WX    TMP DP  RH WIND       PRES   REMARKS
LEWISTON       PTCLDY    54  41  61 S8        30.14S
LOWELL           N/A     45  42  89 N5        30.20R
COEUR D`ALENE  MOCLDY    46  37  71 CALM      30.14R
MULLAN PASS    MOCLDY    38  27  64 SW9G16    30.16F WCI  31
$$


USA.gov is the U.S. government's official web portal to all federal, state and local government web resources and services.